Check out our new BloomSky Weather System.

Active alerts


No alerts


Thunder radar  blitzortung!


Rain radar more information rain snow radar


Visit our other weather sites:

Template documentation
and downloads

And another site



Weather Underground History page Text

Daily Summary for January 22, 2017 Units:  Metric    English   Both
« Previous Day
Next Day »
Daily Weekly Monthly Yearly Custom
  High: Low: Average:
Temperature: 19.8 °C 13.1 °C 16.5 °C
Dew Point: 13.1 °C 3.6 °C 7.6 °C
Humidity: 90 % 44 % 57 %
Wind Speed: 38.6 km/h 0 km/h 8 km/h
Wind Gust: 45.1 km/h - -
Wind:- - WSW
Pressure: 1012.4 hPa 999.5 hPa -
Precipitation: 0.76 mm    
Historical Graphs
 
 
Tabular Data for January 22, 2017
Time Temperature Dew Point Pressure Wind Wind Speed Wind Gust Humidity Rainfall Rate (Hourly)
00:00 16.9 °C 12 °C 1001.2 hPa NW 4.8 km/h 9.7 km/h 73 % 0.25 mm
00:05 16.7 °C 12.2 °C 1000.6 hPa Calm   9.7 km/h 75 % 0.76 mm
00:10 16.3 °C 12.1 °C 1000.9 hPa Calm   9.7 km/h 76 % 0.76 mm
00:15 16.2 °C 12.7 °C 1000.6 hPa Calm   6.4 km/h 80 % 0.76 mm
00:20 15.7 °C 12.6 °C 1000.6 hPa Calm   3.2 km/h 82 % 0.76 mm
00:25 15.4 °C 12.7 °C 1000.2 hPa ESE 1.6 km/h 3.2 km/h 84 % 0.76 mm
00:30 15.3 °C 13 °C 1000.2 hPa SSE 1.6 km/h 3.2 km/h 86 % 0.76 mm
00:35 15.1 °C 13 °C 1000.6 hPa Calm   3.2 km/h 87 % 0.76 mm
00:40 14.8 °C 12.7 °C 1000.6 hPa Calm   3.2 km/h 87 % 0.76 mm
00:45 14.7 °C 12.7 °C 1000.6 hPa Calm   3.2 km/h 88 % 0.76 mm
00:50 14.6 °C 12.8 °C 1000.6 hPa Calm   1.6 km/h 89 % 0.76 mm
00:55 14.5 °C 12.7 °C 1000.2 hPa Calm   1.6 km/h 89 % 0.76 mm
01:00 14.6 °C 13 °C 1000.6 hPa Calm   4.8 km/h 90 % 0.51 mm
01:05 14.5 °C 12.9 °C 1000.9 hPa SSW 3.2 km/h 6.4 km/h 90 % 0 mm
01:10 14.6 °C 13 °C 1001.2 hPa South 6.4 km/h 6.4 km/h 90 % 0 mm
01:15 14.7 °C 12.9 °C 1000.9 hPa SE 1.6 km/h 9.7 km/h 89 % 0 mm
01:20 14.9 °C 13.1 °C 1000.6 hPa Calm   9.7 km/h 89 % 0.25 mm
01:25 14.9 °C 12.9 °C 1000.9 hPa SW 1.6 km/h 9.7 km/h 88 % 0.25 mm
01:30 14.8 °C 13 °C 1001.2 hPa Calm   3.2 km/h 89 % 0.25 mm
01:35 14.7 °C 12.9 °C 1000.9 hPa Calm   3.2 km/h 89 % 0.25 mm
01:40 14.6 °C 12.5 °C 1000.2 hPa Calm   4.8 km/h 87 % 0.25 mm
01:45 14.6 °C 12.3 °C 1000.2 hPa SSW 1.6 km/h 4.8 km/h 86 % 0.25 mm
01:50 14.7 °C 12.2 °C 999.9 hPa Calm   4.8 km/h 85 % 0.25 mm
01:55 14.8 °C 12.1 °C 1000.2 hPa Calm   1.6 km/h 84 % 0.25 mm
02:00 14.8 °C 11.9 °C 999.9 hPa Calm   1.6 km/h 83 % 0.25 mm
02:05 14.8 °C 11.9 °C 999.5 hPa Calm   1.6 km/h 83 % 0.25 mm
02:10 14.8 °C 11.9 °C 999.5 hPa Calm   1.6 km/h 83 % 0.25 mm
02:15 14.9 °C 12.2 °C 999.9 hPa Calm   3.2 km/h 84 % 0.25 mm
02:20 14.8 °C 12.3 °C 1000.2 hPa Calm   3.2 km/h 85 % 0 mm
02:25 14.7 °C 12.2 °C 1000.2 hPa Calm   3.2 km/h 85 % 0 mm
02:30 14.6 °C 12.1 °C 1000.6 hPa Calm   3.2 km/h 85 % 0 mm
02:35 14.6 °C 11.9 °C 1000.6 hPa West 1.6 km/h 3.2 km/h 84 % 0 mm
02:40 14.6 °C 11.9 °C 1000.9 hPa Calm   3.2 km/h 84 % 0 mm
02:45 14.6 °C 11.7 °C 999.9 hPa Calm   3.2 km/h 83 % 0 mm
02:50 14.6 °C 11.6 °C 999.9 hPa Calm   3.2 km/h 82 % 0 mm
02:55 14.6 °C 11.6 °C 1000.2 hPa WSW 3.2 km/h 6.4 km/h 82 % 0 mm
03:00 14.8 °C 11 °C 1000.6 hPa West 3.2 km/h 11.3 km/h 78 % 0 mm
03:05 15 °C 10.6 °C 1000.6 hPa Calm   11.3 km/h 75 % 0 mm
03:11 15.2 °C 10.2 °C 1000.6 hPa South 1.6 km/h 11.3 km/h 72 % 0 mm
03:16 15.4 °C 10 °C 1000.6 hPa West 6.4 km/h 8 km/h 70 % 0 mm
03:21 15.7 °C 8.7 °C 1000.6 hPa SW 1.6 km/h 20.9 km/h 63 % 0 mm
03:26 15.9 °C 8.1 °C 1000.6 hPa SW 4.8 km/h 20.9 km/h 60 % 0 mm
03:31 16.2 °C 7.4 °C 1000.6 hPa WNW 4.8 km/h 20.9 km/h 56 % 0 mm
03:36 16.2 °C 6.9 °C 1000.6 hPa West 4.8 km/h 16.1 km/h 54 % 0 mm
03:42 16.2 °C 7.1 °C 1000.6 hPa SW 1.6 km/h 16.1 km/h 55 % 0 mm
03:47 16.2 °C 6.3 °C 1000.6 hPa East 6.4 km/h 16.1 km/h 52 % 0 mm
03:52 16.3 °C 6.1 °C 1000.2 hPa SW 4.8 km/h 16.1 km/h 51 % 0 mm
03:57 16.2 °C 6.3 °C 1000.2 hPa WSW 3.2 km/h 14.5 km/h 52 % 0 mm
04:02 16.2 °C 6.1 °C 1000.2 hPa West 3.2 km/h 14.5 km/h 51 % 0 mm
04:07 16.1 °C 6 °C 1000.2 hPa South 4.8 km/h 12.9 km/h 51 % 0 mm
04:12 15.9 °C 5.8 °C 1000.2 hPa East 4.8 km/h 9.7 km/h 51 % 0 mm
04:17 15.9 °C 6.1 °C 1000.2 hPa SW 6.4 km/h 9.7 km/h 52 % 0 mm
04:22 15.8 °C 6.2 °C 1000.2 hPa West 1.6 km/h 9.7 km/h 53 % 0 mm
04:27 15.6 °C 5.8 °C 1000.2 hPa SSE 3.2 km/h 9.7 km/h 52 % 0 mm
04:32 15.6 °C 5.5 °C 1000.6 hPa SW 1.6 km/h 17.7 km/h 51 % 0 mm
04:37 15.4 °C 5.3 °C 1000.6 hPa NNW 3.2 km/h 17.7 km/h 51 % 0 mm
04:42 15.3 °C 5.2 °C 1000.6 hPa WSW 3.2 km/h 17.7 km/h 51 % 0 mm
04:47 15.2 °C 5.1 °C 1000.6 hPa SSW 3.2 km/h 11.3 km/h 51 % 0 mm
04:52 15 °C 4.9 °C 1000.6 hPa SSW 3.2 km/h 9.7 km/h 51 % 0 mm
04:57 14.8 °C 5 °C 1000.6 hPa Calm   9.7 km/h 52 % 0 mm
05:02 14.6 °C 4.9 °C 1000.6 hPa SSW 1.6 km/h 9.7 km/h 52 % 0 mm
05:07 14.4 °C 4.9 °C 1000.2 hPa WSW 3.2 km/h 9.7 km/h 53 % 0 mm
05:12 14.3 °C 4.8 °C 1000.2 hPa Calm   8 km/h 53 % 0 mm
05:17 14.1 °C 4.9 °C 1000.2 hPa SW 3.2 km/h 6.4 km/h 54 % 0 mm
05:22 14 °C 4.8 °C 1000.2 hPa SW 1.6 km/h 6.4 km/h 54 % 0 mm
05:27 14 °C 4.6 °C 1000.2 hPa SSW 8 km/h 8 km/h 53 % 0 mm
05:32 13.9 °C 4.7 °C 1000.2 hPa South 3.2 km/h 9.7 km/h 54 % 0 mm
05:37 13.8 °C 4.7 °C 1000.6 hPa SW 3.2 km/h 9.7 km/h 54 % 0 mm
05:42 13.8 °C 4.7 °C 1000.6 hPa SW 1.6 km/h 9.7 km/h 54 % 0 mm
05:47 13.8 °C 4.7 °C 1000.6 hPa WSW 6.4 km/h 9.7 km/h 54 % 0 mm
05:52 13.8 °C 4.7 °C 1000.6 hPa SW 1.6 km/h 9.7 km/h 54 % 0 mm
05:57 13.6 °C 4.5 °C 1000.6 hPa SW 1.6 km/h 9.7 km/h 54 % 0 mm
06:02 13.6 °C 4.5 °C 1000.6 hPa SW 1.6 km/h 9.7 km/h 54 % 0 mm
06:07 13.6 °C 4.7 °C 1000.6 hPa WSW 1.6 km/h 9.7 km/h 55 % 0 mm
06:12 13.6 °C 4.5 °C 1000.6 hPa SSE 6.4 km/h 9.7 km/h 54 % 0 mm
06:17 13.6 °C 4.5 °C 1000.2 hPa WSW 3.2 km/h 11.3 km/h 54 % 0 mm
06:22 13.6 °C 4.5 °C 1000.6 hPa West 4.8 km/h 11.3 km/h 54 % 0 mm
06:27 13.5 °C 4.4 °C 1000.6 hPa SW 3.2 km/h 11.3 km/h 54 % 0 mm
06:32 13.4 °C 4.5 °C 1000.6 hPa SSE 6.4 km/h 9.7 km/h 55 % 0 mm
06:37 13.4 °C 4.5 °C 1000.6 hPa SSW 1.6 km/h 9.7 km/h 55 % 0 mm
06:42 13.3 °C 4.2 °C 1000.6 hPa WSW 4.8 km/h 11.3 km/h 54 % 0 mm
06:47 13.3 °C 4.4 °C 1000.6 hPa WNW 4.8 km/h 11.3 km/h 55 % 0 mm
06:52 13.3 °C 4.2 °C 1000.6 hPa SW 4.8 km/h 11.3 km/h 54 % 0 mm
06:57 13.3 °C 4.2 °C 1000.6 hPa SW 3.2 km/h 11.3 km/h 54 % 0 mm
07:02 13.3 °C 4.2 °C 1000.6 hPa South 3.2 km/h 11.3 km/h 54 % 0 mm
07:07 13.2 °C 4.1 °C 1000.6 hPa Calm   11.3 km/h 54 % 0 mm
07:12 13.2 °C 4.4 °C 1000.6 hPa Calm   12.9 km/h 55 % 0 mm
07:17 13.1 °C 4.5 °C 1000.6 hPa SW 4.8 km/h 12.9 km/h 56 % 0 mm
07:22 13.1 °C 4.3 °C 1000.6 hPa Calm   12.9 km/h 55 % 0 mm
07:27 13.2 °C 4.4 °C 1000.6 hPa West 9.7 km/h 12.9 km/h 55 % 0 mm
07:32 13.3 °C 4.2 °C 1000.6 hPa SSW 4.8 km/h 14.5 km/h 54 % 0 mm
07:37 13.4 °C 4 °C 1000.6 hPa WSW 6.4 km/h 14.5 km/h 53 % 0 mm
07:42 13.6 °C 3.9 °C 1000.6 hPa SW 14.5 km/h 14.5 km/h 52 % 0 mm
07:47 13.9 °C 3.6 °C 1000.6 hPa WSW 6.4 km/h 17.7 km/h 50 % 0 mm
07:52 14.2 °C 3.9 °C 1000.6 hPa West 3.2 km/h 17.7 km/h 50 % 0 mm
07:57 14.4 °C 3.8 °C 1000.6 hPa SW 9.7 km/h 17.7 km/h 49 % 0 mm
08:02 14.6 °C 3.7 °C 1000.6 hPa West 4.8 km/h 25.7 km/h 48 % 0 mm
08:07 14.8 °C 3.9 °C 1000.6 hPa WSW 9.7 km/h 25.7 km/h 48 % 0 mm
08:12 15.1 °C 4.2 °C 1000.6 hPa West 11.3 km/h 25.7 km/h 48 % 0 mm
08:17 15.2 °C 3.7 °C 1000.6 hPa WSW 9.7 km/h 22.5 km/h 46 % 0 mm
08:22 15.3 °C 4.1 °C 1000.6 hPa NW 3.2 km/h 19.3 km/h 47 % 0 mm
08:27 15.4 °C 4.1 °C 1000.6 hPa SW 12.9 km/h 22.5 km/h 47 % 0 mm
08:32 15.6 °C 4 °C 1000.6 hPa SW 9.7 km/h 22.5 km/h 46 % 0 mm
08:37 15.7 °C 4.4 °C 1000.6 hPa WSW 9.7 km/h 27.4 km/h 47 % 0 mm
08:42 15.8 °C 4.5 °C 1000.6 hPa North 12.9 km/h 27.4 km/h 47 % 0 mm
08:47 15.9 °C 4.6 °C 1000.6 hPa WSW 3.2 km/h 27.4 km/h 47 % 0 mm
08:52 16.1 °C 4.5 °C 1000.6 hPa WSW 1.6 km/h 25.7 km/h 46 % 0 mm
08:57 16.2 °C 4.6 °C 1000.9 hPa South 3.2 km/h 24.1 km/h 46 % 0 mm
09:02 16.3 °C 4 °C 1000.9 hPa SSW 16.1 km/h 24.1 km/h 44 % 0 mm
09:07 16.3 °C 4 °C 1000.9 hPa NW 4.8 km/h 24.1 km/h 44 % 0 mm
09:12 16.3 °C 4.3 °C 1000.9 hPa WSW 9.7 km/h 24.1 km/h 45 % 0 mm
09:17 16.4 °C 4.4 °C 1000.9 hPa West 6.4 km/h 24.1 km/h 45 % 0 mm
09:22 16.6 °C 4.6 °C 1000.9 hPa NW 4.8 km/h 17.7 km/h 45 % 0 mm
09:27 16.7 °C 4.4 °C 1001.2 hPa NW 9.7 km/h 17.7 km/h 44 % 0 mm
09:32 16.8 °C 5.4 °C 1001.2 hPa WSW 11.3 km/h 25.7 km/h 47 % 0 mm
09:37 16.9 °C 5.2 °C 1001.2 hPa SW 11.3 km/h 25.7 km/h 46 % 0 mm
09:42 17.1 °C 5.4 °C 1001.6 hPa SSW 8 km/h 25.7 km/h 46 % 0 mm
09:47 17.4 °C 5.7 °C 1001.6 hPa SSW 3.2 km/h 22.5 km/h 46 % 0 mm
09:52 17.7 °C 5.6 °C 1001.6 hPa West 12.9 km/h 17.7 km/h 45 % 0 mm
09:57 17.5 °C 5.4 °C 1001.6 hPa West 9.7 km/h 24.1 km/h 45 % 0 mm
10:02 17.5 °C 5.7 °C 1001.9 hPa West 6.4 km/h 33.8 km/h 46 % 0 mm
10:07 17.3 °C 5.9 °C 1001.6 hPa WNW 19.3 km/h 33.8 km/h 47 % 0 mm
10:12 17.4 °C 6 °C 1001.6 hPa WNW 9.7 km/h 33.8 km/h 47 % 0 mm
10:17 17.6 °C 6.2 °C 1001.9 hPa SW 3.2 km/h 29 km/h 47 % 0 mm
10:22 17.7 °C 6.2 °C 1001.9 hPa SW 8 km/h 29 km/h 47 % 0 mm
10:27 17.7 °C 6.5 °C 1001.9 hPa WNW 8 km/h 30.6 km/h 48 % 0 mm
10:32 17.7 °C 6.5 °C 1001.9 hPa West 20.9 km/h 32.2 km/h 48 % 0 mm
10:37 17.7 °C 6.8 °C 1001.9 hPa SW 9.7 km/h 38.6 km/h 49 % 0 mm
10:42 17.6 °C 7.1 °C 1002.3 hPa NNE 8 km/h 38.6 km/h 50 % 0 mm
10:47 17.8 °C 7.2 °C 1002.3 hPa SW 9.7 km/h 38.6 km/h 50 % 0 mm
10:52 17.8 °C 6.9 °C 1002.3 hPa WNW 24.1 km/h 30.6 km/h 49 % 0 mm
10:57 17.9 °C 7 °C 1002.6 hPa NW 14.5 km/h 37 km/h 49 % 0 mm
11:02 18 °C 7.7 °C 1002.3 hPa NNW 11.3 km/h 37 km/h 51 % 0 mm
11:07 18.1 °C 7.8 °C 1002.3 hPa West 25.7 km/h 37 km/h 51 % 0 mm
11:12 18 °C 8 °C 1002.3 hPa South 3.2 km/h 35.4 km/h 52 % 0 mm
11:17 18.2 °C 8.2 °C 1002.6 hPa WNW 12.9 km/h 37 km/h 52 % 0 mm
11:22 18.3 °C 8.3 °C 1002.3 hPa North 29 km/h 37 km/h 52 % 0 mm
11:27 18.6 °C 8.8 °C 1002.6 hPa South 14.5 km/h 37 km/h 53 % 0 mm
11:32 18.6 °C 8.8 °C 1002.3 hPa NNE 27.4 km/h 35.4 km/h 53 % 0 mm
11:38 18.6 °C 8.6 °C 1002.6 hPa WNW 16.1 km/h 41.8 km/h 52 % 0 mm
11:43 18.6 °C 8.8 °C 1002.6 hPa NW 9.7 km/h 41.8 km/h 53 % 0 mm
11:48 18.9 °C 9.1 °C 1002.6 hPa WNW 6.4 km/h 41.8 km/h 53 % 0 mm
11:53 19 °C 8.9 °C 1002.6 hPa NNE 8 km/h 33.8 km/h 52 % 0 mm
11:58 19.2 °C 9.1 °C 1002.6 hPa NNW 16.1 km/h 33.8 km/h 52 % 0 mm
12:03 19.2 °C 9.1 °C 1002.3 hPa North 11.3 km/h 33.8 km/h 52 % 0 mm
12:08 19.4 °C 9.3 °C 1002.3 hPa East 16.1 km/h 33.8 km/h 52 % 0 mm
12:13 19.4 °C 8.7 °C 1002.6 hPa ESE 4.8 km/h 33.8 km/h 50 % 0 mm
12:18 19.4 °C 8.7 °C 1002.3 hPa WNW 9.7 km/h 33.8 km/h 50 % 0 mm
12:23 19.4 °C 8.7 °C 1002.3 hPa ESE 14.5 km/h 35.4 km/h 50 % 0 mm
12:28 19.3 °C 9.2 °C 1002.3 hPa NW 27.4 km/h 35.4 km/h 52 % 0 mm
12:33 19.2 °C 8.5 °C 1002.3 hPa NW 11.3 km/h 41.8 km/h 50 % 0 mm
12:38 19.2 °C 8.8 °C 1002.3 hPa North 16.1 km/h 41.8 km/h 51 % 0 mm
12:43 19.3 °C 8.9 °C 1002.3 hPa NW 19.3 km/h 41.8 km/h 51 % 0 mm
12:48 19.5 °C 9.1 °C 1002.3 hPa West 22.5 km/h 41.8 km/h 51 % 0 mm
12:53 19.5 °C 8.8 °C 1002.3 hPa NW 19.3 km/h 41.8 km/h 50 % 0 mm
12:58 19.5 °C 9.1 °C 1002.3 hPa SSW 6.4 km/h 37 km/h 51 % 0 mm
13:03 19.6 °C 9.5 °C 1002.3 hPa WNW 9.7 km/h 37 km/h 52 % 0 mm
13:08 19.8 °C 9.4 °C 1002.3 hPa East 9.7 km/h 32.2 km/h 51 % 0 mm
13:13 19.6 °C 9.2 °C 1002.3 hPa NNW 19.3 km/h 32.2 km/h 51 % 0 mm
13:18 19.5 °C 9.1 °C 1002.3 hPa WNW 22.5 km/h 35.4 km/h 51 % 0 mm
13:23 19.5 °C 9.4 °C 1002.3 hPa North 12.9 km/h 35.4 km/h 52 % 0 mm
13:28 19.5 °C 9.7 °C 1002.3 hPa NW 9.7 km/h 35.4 km/h 53 % 0 mm
13:33 19.5 °C 9.7 °C 1002.3 hPa West 12.9 km/h 35.4 km/h 53 % 0 mm
13:38 19.8 °C 9.9 °C 1002.3 hPa NW 8 km/h 30.6 km/h 53 % 0 mm
13:43 19.7 °C 9.6 °C 1002.6 hPa NW 38.6 km/h 38.6 km/h 52 % 0 mm
13:48 19.5 °C 9.7 °C 1002.3 hPa NW 11.3 km/h 38.6 km/h 53 % 0 mm
13:53 19.4 °C 9.6 °C 1002.3 hPa NNW 8 km/h 38.6 km/h 53 % 0 mm
13:58 19.3 °C 9.8 °C 1002.3 hPa NNW 22.5 km/h 38.6 km/h 54 % 0 mm
14:03 19.3 °C 9.8 °C 1002.6 hPa NNW 22.5 km/h 33.8 km/h 54 % 0 mm
14:08 19.3 °C 10 °C 1002.6 hPa North 12.9 km/h 45.1 km/h 55 % 0 mm
14:13 19.5 °C 9.9 °C 1002.9 hPa NW 27.4 km/h 45.1 km/h 54 % 0 mm
14:18 19.2 °C 9.7 °C 1003.3 hPa NNW 11.3 km/h 45.1 km/h 54 % 0 mm
14:23 18.9 °C 9.4 °C 1002.9 hPa West 17.7 km/h 37 km/h 54 % 0 mm
14:28 18.8 °C 9.6 °C 1003.3 hPa WSW 9.7 km/h 37 km/h 55 % 0 mm
14:33 18.8 °C 9.3 °C 1003.6 hPa WNW 27.4 km/h 43.5 km/h 54 % 0 mm
14:38 18.8 °C 9.6 °C 1003.3 hPa WNW 16.1 km/h 43.5 km/h 55 % 0 mm
14:43 19.1 °C 9.6 °C 1003.3 hPa NW 17.7 km/h 43.5 km/h 54 % 0 mm
14:48 19.3 °C 9.8 °C 1003.3 hPa NW 14.5 km/h 35.4 km/h 54 % 0 mm
14:53 19.5 °C 9.9 °C 1003.3 hPa WSW 27.4 km/h 35.4 km/h 54 % 0 mm
14:58 19.4 °C 9.3 °C 1003.3 hPa NW 25.7 km/h 33.8 km/h 52 % 0 mm
15:03 19.6 °C 9.8 °C 1003.6 hPa NW 11.3 km/h 41.8 km/h 53 % 0 mm
15:08 19.6 °C 9.5 °C 1003.6 hPa WSW 16.1 km/h 41.8 km/h 52 % 0 mm
15:13 19.4 °C 9.3 °C 1003.9 hPa WNW 17.7 km/h 41.8 km/h 52 % 0 mm
15:18 19.3 °C 9.5 °C 1003.9 hPa NW 14.5 km/h 33.8 km/h 53 % 0 mm
15:23 19.3 °C 9.5 °C 1004.3 hPa WNW 14.5 km/h 37 km/h 53 % 0 mm
15:28 19.2 °C 9.7 °C 1004.3 hPa West 4.8 km/h 37 km/h 54 % 0 mm
15:33 18.8 °C 9.3 °C 1004.3 hPa WNW 6.4 km/h 37 km/h 54 % 0 mm
15:38 18.7 °C 9.7 °C 1004.6 hPa NNE 11.3 km/h 38.6 km/h 56 % 0 mm
15:43 18.9 °C 9.9 °C 1004.6 hPa SSW 6.4 km/h 38.6 km/h 56 % 0 mm
15:48 18.6 °C 9.4 °C 1005 hPa NW 11.3 km/h 38.6 km/h 55 % 0 mm
15:53 18.3 °C 9.1 °C 1005 hPa NNW 29 km/h 35.4 km/h 55 % 0 mm
15:58 18.2 °C 8.7 °C 1005 hPa NNW 12.9 km/h 35.4 km/h 54 % 0 mm
16:03 18.1 °C 8.6 °C 1005 hPa NW 22.5 km/h 41.8 km/h 54 % 0 mm
16:08 18.1 °C 8.9 °C 1005.3 hPa West 14.5 km/h 41.8 km/h 55 % 0 mm
16:13 18.2 °C 9 °C 1005.3 hPa NW 11.3 km/h 41.8 km/h 55 % 0 mm
16:18 18.2 °C 9 °C 1005.3 hPa WNW 14.5 km/h 37 km/h 55 % 0 mm
16:23 18.2 °C 9 °C 1005.3 hPa NW 6.4 km/h 30.6 km/h 55 % 0 mm
16:28 18.2 °C 9 °C 1005.6 hPa West 17.7 km/h 37 km/h 55 % 0 mm
16:33 18.1 °C 8.9 °C 1005.6 hPa East 3.2 km/h 37 km/h 55 % 0 mm
16:38 18.1 °C 8.9 °C 1005.6 hPa North 14.5 km/h 37 km/h 55 % 0 mm
16:43 17.9 °C 8.7 °C 1006 hPa West 24.1 km/h 35.4 km/h 55 % 0 mm
16:48 17.9 °C 8.7 °C 1006 hPa NNE 22.5 km/h 37 km/h 55 % 0 mm
16:53 17.9 °C 9 °C 1006 hPa NNW 9.7 km/h 37 km/h 56 % 0 mm
16:58 17.9 °C 9 °C 1006.3 hPa North 9.7 km/h 37 km/h 56 % 0 mm
17:03 17.8 °C 9.2 °C 1006.3 hPa ENE 3.2 km/h 30.6 km/h 57 % 0 mm
17:08 17.8 °C 9.2 °C 1006.3 hPa WNW 14.5 km/h 30.6 km/h 57 % 0 mm
17:13 17.7 °C 9.1 °C 1006.3 hPa North 4.8 km/h 37 km/h 57 % 0 mm
17:18 17.7 °C 9.1 °C 1006.3 hPa NW 3.2 km/h 37 km/h 57 % 0 mm
17:23 17.6 °C 9 °C 1006.3 hPa NNW 6.4 km/h 37 km/h 57 % 0 mm
17:28 17.6 °C 9 °C 1006.3 hPa West 20.9 km/h 32.2 km/h 57 % 0 mm
17:33 17.5 °C 8.9 °C 1006.7 hPa WSW 6.4 km/h 32.2 km/h 57 % 0 mm
17:38 17.4 °C 8.8 °C 1006.7 hPa NNW 19.3 km/h 32.2 km/h 57 % 0 mm
17:43 17.4 °C 8.8 °C 1006.7 hPa WNW 6.4 km/h 30.6 km/h 57 % 0 mm
17:48 17.4 °C 8.8 °C 1006.7 hPa NNW 11.3 km/h 30.6 km/h 57 % 0 mm
17:53 17.3 °C 8.7 °C 1007 hPa NW 11.3 km/h 30.6 km/h 57 % 0 mm
17:58 17.3 °C 8.7 °C 1007 hPa NW 16.1 km/h 30.6 km/h 57 % 0 mm
18:03 17.2 °C 8.3 °C 1007 hPa NW 14.5 km/h 30.6 km/h 56 % 0 mm
18:08 17.3 °C 8.4 °C 1007.3 hPa West 9.7 km/h 22.5 km/h 56 % 0 mm
18:13 17.2 °C 8.3 °C 1007.3 hPa NW 12.9 km/h 29 km/h 56 % 0 mm
18:18 17.3 °C 8.2 °C 1007.3 hPa North 11.3 km/h 29 km/h 55 % 0 mm
18:23 17.2 °C 8.3 °C 1007.7 hPa North 3.2 km/h 29 km/h 56 % 0 mm
18:28 17.1 °C 8.3 °C 1007.7 hPa North 4.8 km/h 25.7 km/h 56 % 0 mm
18:34 17.1 °C 8.3 °C 1007.7 hPa NE 8 km/h 20.9 km/h 56 % 0 mm
18:39 17.2 °C 8.1 °C 1008 hPa NNE 1.6 km/h 32.2 km/h 55 % 0 mm
18:44 17.1 °C 8.3 °C 1008 hPa WNW 8 km/h 32.2 km/h 56 % 0 mm
18:49 17 °C 8.2 °C 1008 hPa NE 1.6 km/h 32.2 km/h 56 % 0 mm
18:54 17 °C 8.2 °C 1008.4 hPa NNE 3.2 km/h 25.7 km/h 56 % 0 mm
18:59 16.9 °C 7.8 °C 1008.4 hPa WNW 6.4 km/h 20.9 km/h 55 % 0 mm
19:04 17 °C 7.9 °C 1008.4 hPa NNW 11.3 km/h 20.9 km/h 55 % 0 mm
19:09 16.9 °C 7.8 °C 1008.4 hPa WNW 11.3 km/h 20.9 km/h 55 % 0 mm
19:14 16.9 °C 7.8 °C 1008.7 hPa West 12.9 km/h 20.9 km/h 55 % 0 mm
19:19 16.9 °C 7.5 °C 1008.7 hPa West 3.2 km/h 20.9 km/h 54 % 0 mm
19:20 16.9 °C 7.5 °C 1008.7 hPa NNE 8 km/h 20.9 km/h 54 % 0 mm
19:25 16.8 °C 7.4 °C 1008.7 hPa West 6.4 km/h 20.9 km/h 54 % 0 mm
19:30 16.8 °C 7.4 °C 1008.7 hPa WNW 3.2 km/h 20.9 km/h 54 % 0 mm
19:35 16.8 °C 7.2 °C 1008.7 hPa WNW 6.4 km/h 20.9 km/h 53 % 0 mm
19:40 16.9 °C 7.3 °C 1009 hPa West 6.4 km/h 16.1 km/h 53 % 0 mm
19:45 16.9 °C 7 °C 1009 hPa West 8 km/h 20.9 km/h 52 % 0 mm
19:50 17.1 °C 6.6 °C 1009 hPa NNW 6.4 km/h 20.9 km/h 50 % 0 mm
19:51 17.1 °C 6.9 °C 1009 hPa North 3.2 km/h 20.9 km/h 51 % 0 mm
19:56 17.1 °C 6.6 °C 1009 hPa WNW 9.7 km/h 20.9 km/h 50 % 0 mm
20:01 17.2 °C 6.4 °C 1009.4 hPa NNW 17.7 km/h 29 km/h 49 % 0 mm
20:06 17.1 °C 6.3 °C 1009.4 hPa NNW 6.4 km/h 29 km/h 49 % 0 mm
20:11 17.1 °C 6.3 °C 1009.4 hPa NW 6.4 km/h 29 km/h 49 % 0 mm
20:16 16.9 °C 6.4 °C 1009.4 hPa NNW 8 km/h 24.1 km/h 50 % 0 mm
20:21 16.9 °C 6.4 °C 1009.4 hPa WNW 1.6 km/h 24.1 km/h 50 % 0 mm
20:26 16.8 °C 6.3 °C 1009.4 hPa NNW 3.2 km/h 19.3 km/h 50 % 0 mm
20:31 16.8 °C 6 °C 1009.7 hPa WNW 3.2 km/h 22.5 km/h 49 % 0 mm
20:36 16.9 °C 6.1 °C 1009.7 hPa NW 19.3 km/h 22.5 km/h 49 % 0 mm
20:41 16.9 °C 5.8 °C 1009.7 hPa WNW 12.9 km/h 24.1 km/h 48 % 0 mm
20:46 16.9 °C 5.8 °C 1010 hPa WNW 14.5 km/h 33.8 km/h 48 % 0 mm
20:51 16.9 °C 5.8 °C 1010 hPa NW 8 km/h 33.8 km/h 48 % 0 mm
20:56 16.8 °C 5.7 °C 1010 hPa NW 9.7 km/h 33.8 km/h 48 % 0 mm
21:01 16.7 °C 5.9 °C 1010 hPa NNW 16.1 km/h 20.9 km/h 49 % 0 mm
21:06 16.8 °C 5.7 °C 1010 hPa NW 4.8 km/h 24.1 km/h 48 % 0 mm
21:11 16.8 °C 5.7 °C 1010.4 hPa NNW 12.9 km/h 24.1 km/h 48 % 0 mm
21:17 16.7 °C 5.6 °C 1010.4 hPa NNE 6.4 km/h 25.7 km/h 48 % 0 mm
21:22 16.7 °C 5.9 °C 1010.4 hPa NW 8 km/h 25.7 km/h 49 % 0 mm
21:27 16.7 °C 5.9 °C 1010.4 hPa NW 12.9 km/h 25.7 km/h 49 % 0 mm
21:32 16.6 °C 5.8 °C 1010.4 hPa NNW 8 km/h 25.7 km/h 49 % 0 mm
21:37 16.5 °C 5.7 °C 1010.4 hPa NE 3.2 km/h 25.7 km/h 49 % 0 mm
21:42 16.4 °C 5.7 °C 1010.7 hPa NW 6.4 km/h 25.7 km/h 49 % 0 mm
21:47 16.3 °C 5.6 °C 1010.7 hPa NNW 8 km/h 17.7 km/h 49 % 0 mm
21:52 16.2 °C 5.8 °C 1011.1 hPa NW 3.2 km/h 16.1 km/h 50 % 0 mm
21:57 16.2 °C 5.8 °C 1011.1 hPa WNW 6.4 km/h 14.5 km/h 50 % 0 mm
22:02 16.1 °C 5.7 °C 1011.1 hPa NW 9.7 km/h 14.5 km/h 50 % 0 mm
22:08 16.1 °C 5.7 °C 1011.1 hPa North 9.7 km/h 19.3 km/h 50 % 0 mm
22:13 16 °C 5.9 °C 1011.4 hPa SSW 1.6 km/h 20.9 km/h 51 % 0 mm
22:18 15.8 °C 5.7 °C 1011.7 hPa NNE 1.6 km/h 20.9 km/h 51 % 0 mm
22:23 15.6 °C 5.8 °C 1011.7 hPa NW 4.8 km/h 20.9 km/h 52 % 0 mm
22:28 15.7 °C 5.9 °C 1012.1 hPa NNW 6.4 km/h 16.1 km/h 52 % 0 mm
22:33 15.6 °C 5.8 °C 1012.1 hPa NW 3.2 km/h 14.5 km/h 52 % 0 mm
22:38 15.4 °C 5.6 °C 1012.1 hPa NW 4.8 km/h 14.5 km/h 52 % 0 mm
22:43 15.4 °C 5.9 °C 1012.1 hPa North 4.8 km/h 14.5 km/h 53 % 0 mm
22:48 15.3 °C 5.8 °C 1012.1 hPa WNW 3.2 km/h 14.5 km/h 53 % 0 mm
22:53 15.1 °C 5.9 °C 1012.4 hPa NNW 1.6 km/h 14.5 km/h 54 % 0 mm
22:58 14.9 °C 5.7 °C 1012.1 hPa North 3.2 km/h 9.7 km/h 54 % 0 mm
23:03 14.8 °C 5.6 °C 1012.4 hPa WNW 3.2 km/h 9.7 km/h 54 % 0 mm
23:08 14.9 °C 5.7 °C 1012.4 hPa NNE 3.2 km/h 12.9 km/h 54 % 0 mm
23:13 14.8 °C 5.6 °C 1012.4 hPa NW 9.7 km/h 12.9 km/h 54 % 0 mm
23:18 14.9 °C 5.7 °C 1012.1 hPa NW 4.8 km/h 19.3 km/h 54 % 0 mm
23:23 15 °C 5.5 °C 1012.1 hPa WNW 8 km/h 19.3 km/h 53 % 0 mm
23:28 14.9 °C 5.7 °C 1012.1 hPa NNE 4.8 km/h 19.3 km/h 54 % 0 mm
23:33 14.9 °C 5.7 °C 1012.1 hPa NNW 3.2 km/h 19.3 km/h 54 % 0 mm
23:38 14.8 °C 5.6 °C 1012.1 hPa WNW 3.2 km/h 16.1 km/h 54 % 0 mm
23:43 14.8 °C 5.6 °C 1012.4 hPa North 3.2 km/h 16.1 km/h 54 % 0 mm
23:48 14.7 °C 5.5 °C 1012.4 hPa NW 4.8 km/h 12.9 km/h 54 % 0 mm
23:53 14.7 °C 5.5 °C 1012.1 hPa NNW 8 km/h 12.9 km/h 54 % 0 mm
23:58 14.7 °C 5.5 °C 1012.1 hPa NW 1.6 km/h 14.5 km/h 54 % 0 mm
Spring, Texas: Villages of Bridgestone
Compliments of Weather Underground - 2.75 mb

Script developed by  Jim McMurry - jmcmurry@mwt.net Adapted for the template by  Wim van der Kuil - Leuven-Template.eu

You find our weather info also at:

UK Metoffice

WeatherCloud

Weather Underground

Mid-South Weather Network

AWEKAS

Citizen Weather Observer Program (CWOP)

HAMweather, WeatherForYou, PWS Weather

Equipment we use:

Weather-station
Davis Vantage Vue

Weather-program
Meteohub

Weather-server
Debian 7.9 x86 (Guest)

Provider
DreamHost

Davis Vantage Vue

Meteohub

Debian 7.9 x86 (Guest)

DreamHost